DW0033 Weather Reports


time (UTC)temp
C
wind
direction
speed
KPH
gust
KPH
rain 1hr
cm
rain 24hr
cm
rain mn
cm
humidity
%
barometer
mb
20260502213006 9 206 0.0 3.2 0.00 0.10 0.10 90 1008.6
20260502211502 9 217 0.0 3.2 0.03 0.10 0.10 89 1008.5
20260502210001 9 62 0.0 3.2 0.03 0.10 0.10 89 1008.7
20260502204502 9 260 0.0 4.8 0.03 0.10 0.10 87 1008.8
20260502203106 10 185 1.6 8.0 0.03 0.10 0.10 85 1008.8
20260502201559 10 260 6.4 16.1 0.00 0.08 0.08 78 1008.7
20260502200135 11 295 1.6 9.7 0.00 0.08 0.08 73 1008.6
20260502194608 12 307 4.8 11.3 0.00 0.08 0.08 68 1008.4
20260502193058 12 184 0.0 11.3 0.00 0.08 0.08 63 1008.7
20260502191607 12 217 1.6 11.3 0.00 0.08 0.08 64 1008.8
20260502190057 12 123 1.6 16.1 0.00 0.08 0.08 63 1008.8
20260502184559 12 147 3.2 16.1 0.00 0.08 0.08 62 1008.8
20260502183104 13 218 1.6 17.7 0.00 0.08 0.08 59 1008.8
20260502181555 13 139 3.2 16.1 0.00 0.08 0.08 63 1008.8
20260502163041 11 191 1.6 17.7 0.00 0.08 0.08 77 1009.8
20260502161542 11 115 3.2 9.7 0.00 0.08 0.08 78 1010.2
20260502151530 9 159 3.2 6.4 0.00 0.08 0.08 92 1010.4
20260502123024 7 158 0.0 3.2 0.03 0.08 0.08 95 1011.0
20260502121523 7 248 0.0 3.2 0.03 0.05 0.05 94 1010.9
20260502114520 7 29 0.0 3.2 0.05 0.05 0.05 94 1010.4
20260502113020 7 342 0.0 3.2 0.05 0.05 0.05 94 1010.8
20260502111518 7 306 0.0 4.8 0.03 0.03 0.03 93 1010.4
20260502110017 7 191 0.0 3.2 0.00 0.00 0.00 92 1010.0
20260502104517 7 311 0.0 3.2 0.00 0.00 0.00 92 1009.9
20260502103036 7 281 0.0 3.2 0.00 0.00 0.00 91 1009.9
20260502101516 7 325 0.0 1.6 0.00 0.00 0.00 91 1009.7
20260502091512 7 348 0.0 3.2 0.00 0.00 0.00 87 1009.5
20260502071503 8 155 0.0 6.4 0.00 0.00 0.00 73 1009.8
20260502070002 8 351 0.0 1.6 0.00 0.00 0.00 73 1009.7
20260502064600 8 184 0.0 4.8 0.00 0.00 0.00 73 1010.4
20260502063124 7 160 0.0 3.2 0.00 0.00 0.00 73 1009.9
20260502061558 7 196 0.0 3.2 0.00 0.00 0.00 72 1009.8
20260502060106 7 249 0.0 3.2 0.00 0.00 0.00 72 1009.8
20260502054612 7 249 0.0 0.0 0.00 0.00 0.00 73 1009.9
20260502053101 7 249 0.0 0.0 0.00 0.00 0.00 73 1010.0
20260502051553 7 249 0.0 3.2 0.00 0.00 0.00 72 1009.9
20260502050053 7 249 0.0 3.2 0.00 0.00 0.00 70 1009.9
20260502044553 7 249 0.0 3.2 0.00 0.00 0.00 69 1009.9
20260502043057 7 249 0.0 0.0 0.00 0.00 0.00 68 1010.2
20260502041547 7 249 0.0 3.2 0.00 0.00 0.00 68 1010.3
20260502040051 7 249 0.0 3.2 0.00 0.00 0.00 68 1010.2
20260502034547 7 244 0.0 1.6 0.00 0.00 0.00 67 1010.3
20260502033045 7 244 0.0 0.0 0.00 0.00 0.00 67 1010.3
20260502031544 7 246 0.0 3.2 0.00 0.00 0.00 66 1010.1
20260502030055 7 291 0.0 3.2 0.00 0.00 0.00 68 1009.9
20260502024544 7 291 0.0 0.0 0.00 0.00 0.00 66 1009.9
20260502023044 7 291 0.0 3.2 0.00 0.00 0.00 65 1009.9
20260502021542 7 291 0.0 3.2 0.00 0.00 0.00 63 1009.9
20260502020041 7 294 0.0 1.6 0.00 0.00 0.00 61 1009.9
20260502014540 8 294 0.0 3.2 0.00 0.00 0.00 58 1009.8
20260502013039 8 299 0.0 0.0 0.00 0.00 0.00 56 1009.7
20260502011538 9 299 0.0 3.2 0.00 0.00 0.00 55 1009.4
20260502010042 10 299 0.0 0.0 0.00 0.00 0.00 51 1009.4
20260502004537 10 299 0.0 3.2 0.00 0.00 0.00 52 1009.3
20260502003037 11 319 0.0 3.2 0.00 0.00 0.00 47 1008.9
20260502001536 11 299 1.6 1.6 0.00 0.00 0.00 45 1008.7
20260502000036 12 276 0.0 3.2 0.00 0.00 0.00 39 1008.4
20260501234537 12 271 0.0 3.2 0.00 0.00 0.00 37 1008.3
20260501233046 13 158 0.0 3.2 0.00 0.00 0.00 35 1008.0
20260501231535 13 9 0.0 6.4 0.00 0.00 0.00 35 1007.8
20260501230034 14 313 0.0 6.4 0.00 0.00 0.00 32 1007.8
20260501224534 15 306 1.6 11.3 0.00 0.00 0.00 33 1007.8
20260501223039 15 258 1.6 14.5 0.00 0.00 0.00 30 1007.8
20260501221535 16 39 3.2 17.7 0.00 0.00 0.00 28 1007.7
20260501220032 17 309 4.8 14.5 0.00 0.00 0.00 28 1007.7
20260501214535 17 327 1.6 11.3 0.00 0.00 0.00 27 1007.4